FW9338 Weather Reports


Display with metric or nautical units.
time (UTC)temp
F
wind
direction
speed
MPH
gust
MPH
rain 1hr
in
rain 24hr
in
rain mn
in
humidity
%
barometer
mb
20260506130016 59 0 3.0 9.0 0.00 0.00 0.00 50 1015.5
20260506123016 59 45 3.0 13.0 0.00 0.00 0.00 52 1015.4
20260506120016 59 338 4.0 15.0 0.00 0.00 0.00 51 1015.6
20260506113016 58 68 4.0 10.0 0.00 0.00 0.00 54 1015.7
20260506110016 57 45 5.0 11.0 0.00 0.00 0.00 51 1015.8
20260506103036 56 23 5.0 14.0 0.00 0.00 0.00 59 1015.7
20260506100016 55 45 5.0 14.0 0.00 0.00 0.00 62 1015.8
20260506093016 53 45 4.0 11.0 0.00 0.00 0.00 71 1015.8
20260506090036 51 23 3.0 8.0 0.00 0.00 0.00 77 1015.9
20260506083036 50 23 3.0 9.0 0.00 0.00 0.00 79 1015.9
20260506073016 49 45 3.0 11.0 0.00 0.00 0.00 83 1015.7
20260506043015 50 45 2.0 8.0 0.00 0.00 0.00 84 1014.6
20260506040017 51 45 3.0 10.0 0.00 0.00 0.00 82 1014.6
20260506033017 51 45 2.0 9.0 0.00 0.00 0.00 81 1014.5
20260506030017 52 45 2.0 8.0 0.00 0.00 0.00 82 1014.5
20260506023017 52 45 2.0 8.0 0.00 0.00 0.00 82 1014.3
20260506020017 53 23 2.0 5.0 0.00 0.00 0.00 81 1014.3
20260506013037 53 23 2.0 6.0 0.00 0.00 0.00 80 1014.5
20260506010037 53 0 2.0 6.0 0.00 0.00 0.00 79 1014.4
20260506003037 54 23 2.0 6.0 0.00 0.00 0.00 78 1014.4
20260506000037 54 0 2.0 7.0 0.00 0.00 0.00 77 1014.5
20260505233017 54 0 2.0 7.0 0.00 0.00 0.00 76 1014.5
20260505230017 55 0 2.0 8.0 0.00 0.00 0.00 75 1014.5
20260505223037 55 338 2.0 7.0 0.00 0.00 0.00 73 1014.5
20260505220017 56 0 3.0 8.0 0.00 0.00 0.00 72 1014.5
20260505213017 56 0 3.0 7.0 0.00 0.00 0.00 71 1014.5
20260505210017 57 0 2.0 7.0 0.00 0.00 0.00 72 1014.4
20260505203017 57 23 2.0 6.0 0.00 0.00 0.00 71 1014.4
20260505200017 58 23 2.0 7.0 0.00 0.00 0.00 71 1014.3
20260505193016 58 45 2.0 8.0 0.00 0.00 0.00 71 1014.2
20260505190016 58 45 2.0 9.0 0.00 0.00 0.00 70 1013.9
20260505183036 59 0 4.0 11.0 0.00 0.00 0.00 69 1013.8
20260505180017 60 23 4.0 10.0 0.00 0.00 0.00 67 1013.8
20260505173016 60 0 2.0 10.0 0.00 0.00 0.00 67 1013.8
20260505170016 60 23 3.0 10.0 0.00 0.00 0.00 68 1013.9
20260505163016 61 0 4.0 11.0 0.00 0.00 0.00 66 1014.0
20260505153016 60 23 4.0 9.0 0.00 0.00 0.00 69 1014.0